Weather reports worldwide

Advertisment
Logan Botanic Garden, United Kingdom (99193): temperature & dewpoint: 12.07.2018 18:00:00 - 18.07.2018 18:00:00 (BST)Logan Botanic Garden, United Kingdom (99193): temperature -20cm: 12.07.2018 18:00:00 - 18.07.2018 18:00:00 (BST)Logan Botanic Garden, United Kingdom (99193): precipitation: 12.07.2018 18:00:00 - 18.07.2018 18:00:00 (BST)
Date & Time tt [°C] td [°C] tt -20cm [°C] rr [mm]
18.07.2018 18:00:00 17,7 13,0 - 0,0
18.07.2018 17:00:00 18,5 13,5 - 0,0
18.07.2018 16:00:00 17,3 13,1 - 0,0
18.07.2018 15:00:00 17,9 13,4 - 0,0
18.07.2018 14:00:00 18,4 14,3 - 0,0
18.07.2018 13:00:00 16,5 13,8 - 0,0
18.07.2018 12:00:00 15,5 14,9 - 0,0
18.07.2018 11:00:00 14,3 14,0 - 0,0
18.07.2018 10:00:00 14,0 13,6 16,9 0,0
18.07.2018 09:00:00 14,5 14,1 - 0,0
18.07.2018 08:00:00 14,5 13,9 - 0,0
18.07.2018 07:00:00 14,3 13,7 - 0,2
18.07.2018 06:00:00 14,1 13,3 - 0,2
18.07.2018 05:00:00 14,1 13,2 - 0,0
18.07.2018 04:00:00 14,2 13,1 - 0,0
18.07.2018 03:00:00 14,1 12,8 - 0,0
18.07.2018 02:00:00 14,5 12,7 - 0,0
18.07.2018 01:00:00 14,4 12,7 - 0,0
18.07.2018 00:00:00 14,4 12,7 - 0,0
17.07.2018 23:00:00 14,0 12,4 - 0,0
17.07.2018 22:00:00 14,2 12,1 - 0,0
17.07.2018 21:00:00 14,5 11,9 - 0,0
17.07.2018 20:00:00 14,9 11,1 - 0,0
17.07.2018 19:00:00 15,3 11,0 - 0,0
17.07.2018 18:00:00 15,4 10,6 - 0,0
17.07.2018 17:00:00 14,9 10,9 - 0,0
17.07.2018 16:00:00 16,4 11,1 - 0,0
17.07.2018 15:00:00 16,3 11,8 - 0,0
17.07.2018 14:00:00 15,6 10,8 - 0,0
17.07.2018 13:00:00 15,4 11,0 - 0,0
17.07.2018 12:00:00 15,8 9,4 - 0,0
17.07.2018 11:00:00 16,5 10,8 - 0,0
17.07.2018 10:00:00 14,8 11,5 17,0 0,0
17.07.2018 09:00:00 14,2 11,4 - 0,0
17.07.2018 08:00:00 13,8 11,8 - 0,0
17.07.2018 07:00:00 12,9 11,6 - 0,0
17.07.2018 06:00:00 12,6 11,5 - 0,0
17.07.2018 05:00:00 12,3 11,3 - 0,0
17.07.2018 04:00:00 12,7 11,5 - 0,0
17.07.2018 03:00:00 12,8 11,6 - 0,0
17.07.2018 02:00:00 12,7 11,5 - 0,0
17.07.2018 01:00:00 13,0 11,5 - 0,0
17.07.2018 00:00:00 13,9 11,8 - 0,0
16.07.2018 23:00:00 13,8 11,9 - 0,0
16.07.2018 22:00:00 14,9 11,6 - 0,0
16.07.2018 21:00:00 14,8 12,1 - 0,0
16.07.2018 20:00:00 15,4 12,3 - 0,0
16.07.2018 19:00:00 15,8 12,2 - 0,0
16.07.2018 18:00:00 16,8 10,0 - 0,0
16.07.2018 17:00:00 17,2 10,7 - 0,0
16.07.2018 16:00:00 16,9 11,6 - 0,0
16.07.2018 15:00:00 16,9 11,4 - 0,0
16.07.2018 14:00:00 16,8 12,2 - 0,0
16.07.2018 13:00:00 17,9 12,3 - 0,0
16.07.2018 12:00:00 17,3 12,6 - 0,0
16.07.2018 11:00:00 16,5 12,6 - 0,0
16.07.2018 10:00:00 16,3 13,1 16,7 0,0
16.07.2018 09:00:00 14,3 12,7 - 0,0
16.07.2018 08:00:00 13,2 12,6 - 0,0
16.07.2018 07:00:00 12,9 12,3 - 0,0
16.07.2018 06:00:00 13,2 12,5 - 0,0
16.07.2018 05:00:00 13,3 12,6 - 0,0
16.07.2018 04:00:00 13,4 12,7 - 0,0
16.07.2018 03:00:00 14,2 13,6 - 0,0
16.07.2018 02:00:00 14,8 14,4 - 0,0
16.07.2018 01:00:00 15,0 14,6 - 0,0
16.07.2018 00:00:00 15,4 14,8 - 0,0
15.07.2018 23:00:00 15,5 14,8 - 0,2
15.07.2018 22:00:00 15,5 14,8 - 0,0
15.07.2018 21:00:00 15,7 15,1 - 0,0
15.07.2018 20:00:00 15,7 15,1 - 0,0
15.07.2018 19:00:00 15,9 15,4 - 0,6
15.07.2018 18:00:00 15,7 15,2 - 0,4
15.07.2018 17:00:00 15,8 15,1 - 0,0
15.07.2018 16:00:00 15,9 15,4 - 0,0
15.07.2018 15:00:00 15,8 15,3 - 0,4
15.07.2018 14:00:00 15,5 14,8 - 0,0
15.07.2018 13:00:00 15,8 14,8 - 0,0
15.07.2018 12:00:00 16,1 14,3 - 0,0
15.07.2018 11:00:00 16,7 14,5 - 0,0
15.07.2018 10:00:00 16,0 14,5 16,7 0,0
15.07.2018 09:00:00 16,5 15,0 - 0,0
15.07.2018 08:00:00 16,0 15,1 - 0,0
15.07.2018 07:00:00 14,6 14,0 - 0,0
15.07.2018 06:00:00 14,2 13,7 - 0,0
15.07.2018 05:00:00 13,5 12,8 - 0,0
15.07.2018 04:00:00 13,5 12,5 - 0,0
15.07.2018 03:00:00 14,5 13,3 - 0,0
15.07.2018 02:00:00 15,0 13,6 - 0,0
15.07.2018 01:00:00 15,6 13,6 - 0,0
15.07.2018 00:00:00 16,1 13,8 - 0,0
14.07.2018 23:00:00 15,9 13,9 - 0,0
14.07.2018 22:00:00 15,0 13,3 - 0,0
14.07.2018 21:00:00 15,2 13,1 - 0,0
14.07.2018 20:00:00 15,7 12,8 - 0,0
14.07.2018 19:00:00 16,2 12,8 - 0,0
14.07.2018 18:00:00 17,2 13,7 - 0,0
14.07.2018 17:00:00 18,1 13,5 - 0,0
14.07.2018 16:00:00 18,3 13,9 - 0,0
14.07.2018 15:00:00 19,1 12,5 - 0,0
14.07.2018 14:00:00 18,4 12,9 - 0,0
14.07.2018 13:00:00 17,7 12,7 - 0,0
14.07.2018 12:00:00 16,6 14,3 - 0,0
14.07.2018 11:00:00 16,2 15,1 - 0,0
14.07.2018 10:00:00 15,1 14,0 16,7 0,0
14.07.2018 09:00:00 16,7 14,1 - 0,0
14.07.2018 08:00:00 16,1 14,3 - 0,0
14.07.2018 07:00:00 13,9 13,3 - 0,0
14.07.2018 06:00:00 13,2 12,5 - 0,0
14.07.2018 05:00:00 13,0 12,2 - 0,0
14.07.2018 04:00:00 13,7 12,8 - 0,0
14.07.2018 03:00:00 12,2 11,3 - 0,0
14.07.2018 02:00:00 12,4 11,0 - 0,0
14.07.2018 01:00:00 11,4 10,5 - 0,0
14.07.2018 00:00:00 11,2 10,0 - 0,0
13.07.2018 23:00:00 11,6 9,9 - 0,0
13.07.2018 22:00:00 12,7 10,6 - 0,0
13.07.2018 21:00:00 13,9 10,7 - 0,0
13.07.2018 20:00:00 14,0 11,3 - 0,0
13.07.2018 19:00:00 14,1 11,8 - 0,0
13.07.2018 18:00:00 14,5 11,8 - 0,0
13.07.2018 17:00:00 15,5 11,2 - 0,0
13.07.2018 16:00:00 17,2 11,3 - 0,0
13.07.2018 15:00:00 18,2 11,9 - 0,0
13.07.2018 14:00:00 16,8 12,0 - 0,0
13.07.2018 13:00:00 15,9 11,4 - 0,0
13.07.2018 12:00:00 16,2 12,4 - 0,0
13.07.2018 11:00:00 15,7 12,6 - 0,0
13.07.2018 10:00:00 14,7 12,5 16,9 0,0
13.07.2018 09:00:00 13,6 12,2 - 0,0
13.07.2018 08:00:00 13,5 12,3 - 0,0
13.07.2018 07:00:00 13,1 12,1 - 0,0
13.07.2018 06:00:00 12,8 11,8 - 0,0
13.07.2018 05:00:00 12,9 11,7 - 0,0
13.07.2018 04:00:00 13,0 11,4 - 0,0
13.07.2018 03:00:00 13,4 11,3 - 0,0
13.07.2018 02:00:00 12,9 10,8 - 0,0
13.07.2018 01:00:00 12,7 10,3 - 0,0
13.07.2018 00:00:00 13,2 10,5 - 0,0
12.07.2018 23:00:00 13,4 10,8 - 0,0
12.07.2018 22:00:00 13,5 10,7 - 0,0
12.07.2018 21:00:00 15,1 11,4 - 0,0
12.07.2018 20:00:00 16,8 11,4 - 0,0
12.07.2018 19:00:00 17,4 11,3 - 0,0
12.07.2018 18:00:00 17,0 12,7 - 0,0

tt = temperature
td = dewpoint
tt -20cm = temperature -20cm
rr = precipitation

Next stations